FW0954 Weather Reports


time (UTC)temp
C
wind
direction
speed
KPH
gust
KPH
rain 1hr
cm
rain 24hr
cm
rain mn
cm
humidity
%
barometer
mb
20260509135503 23 271 0.0 4.8 0.00 0.00 0.00 88 1010.2
20260509135002 22 275 0.0 4.8 0.00 0.00 0.00 89 1010.2
20260509134503 22 276 0.0 4.8 0.00 0.00 0.00 89 1010.4
20260509134003 22 280 0.0 4.8 0.00 0.00 0.00 90 1010.2
20260509133503 22 283 1.6 11.3 0.00 0.00 0.00 90 1010.2
20260509133003 22 279 1.6 11.3 0.00 0.00 0.00 90 1010.2
20260509132503 22 274 1.6 9.7 0.00 0.00 0.00 91 1010.1
20260509132003 21 291 1.6 11.3 0.00 0.00 0.00 91 1009.9
20260509131502 21 283 1.6 11.3 0.00 0.00 0.00 91 1010.0
20260509131003 21 278 1.6 8.0 0.00 0.00 0.00 92 1010.0
20260509130503 21 278 1.6 6.4 0.00 0.00 0.00 93 1009.9
20260509130002 21 284 1.6 4.8 0.00 0.00 0.00 95 1009.9
20260509125002 21 273 0.0 6.4 0.00 0.00 0.00 96 1010.1
20260509124503 21 275 0.0 4.8 0.00 0.00 0.00 96 1009.9
20260509124002 20 274 0.0 4.8 0.00 0.00 0.00 96 1010.0
20260509123503 20 0 0.0 0.0 0.00 0.00 0.00 96 1010.1
20260509123002 20 0 0.0 0.0 0.00 0.00 0.00 95 1010.0
20260509122503 20 0 0.0 0.0 0.00 0.00 0.00 95 1010.0
20260509122002 20 0 0.0 0.0 0.00 0.00 0.00 95 1010.1
20260509121503 20 0 0.0 0.0 0.00 0.00 0.00 95 1010.0
20260509121002 20 0 0.0 0.0 0.00 0.00 0.00 95 1009.9
20260509120502 20 0 0.0 0.0 0.00 0.00 0.00 94 1009.9
20260509120003 20 0 0.0 0.0 0.00 0.00 0.00 94 1009.8
20260509115502 20 0 0.0 0.0 0.00 0.00 0.00 94 1009.7
20260509115003 20 0 0.0 0.0 0.00 0.00 0.00 94 1009.7
20260509114503 20 0 0.0 0.0 0.00 0.00 0.00 94 1009.5
20260509113503 21 183 0.0 3.2 0.00 0.00 0.00 94 1009.5
20260509113003 21 183 0.0 3.2 0.00 0.00 0.00 94 1009.4
20260509112503 21 179 0.0 3.2 0.00 0.00 0.00 94 1009.3
20260509112003 21 182 0.0 3.2 0.00 0.00 0.00 94 1009.3
20260509111503 21 183 0.0 3.2 0.00 0.00 0.00 94 1009.2
20260509111002 21 187 0.0 3.2 0.00 0.00 0.00 94 1009.2
20260509110503 21 190 0.0 3.2 0.00 0.00 0.00 94 1009.3
20260509110003 21 0 0.0 0.0 0.00 0.00 0.00 94 1009.4
20260509105503 21 0 0.0 0.0 0.00 0.00 0.00 94 1009.3
20260509105003 21 0 0.0 0.0 0.00 0.00 0.00 94 1009.3
20260509104503 21 0 0.0 0.0 0.00 0.00 0.00 94 1009.3
20260509104003 21 0 0.0 0.0 0.00 0.00 0.00 94 1009.2
20260509103503 21 0 0.0 0.0 0.00 0.00 0.00 94 1009.2
20260509102502 21 0 0.0 0.0 0.00 0.00 0.00 94 1009.1
20260509102003 21 0 0.0 0.0 0.00 0.00 0.00 94 1009.1
20260509101502 21 274 0.0 1.6 0.00 0.00 0.00 95 1008.9
20260509101003 21 274 0.0 1.6 0.00 0.00 0.00 95 1008.8
20260509100503 21 274 0.0 1.6 0.00 0.00 0.00 95 1008.7
20260509100004 21 274 0.0 1.6 0.00 0.00 0.00 95 1008.6
20260509095503 20 276 0.0 3.2 0.00 0.00 0.00 95 1008.5
20260509095003 20 279 1.6 9.7 0.00 0.00 0.00 95 1008.4
20260509094503 20 270 1.6 9.7 0.00 0.00 0.00 95 1008.4
20260509094003 20 170 1.6 8.0 0.00 0.00 0.00 95 1008.1
20260509093503 20 159 1.6 8.0 0.00 0.00 0.00 95 1007.7
20260509093003 20 158 1.6 8.0 0.00 0.00 0.00 95 1007.6
20260509092003 20 159 3.2 11.3 0.00 0.00 0.00 94 1007.4
20260509091503 20 153 3.2 9.7 0.00 0.00 0.00 94 1006.8
20260509091003 20 149 3.2 9.7 0.00 0.00 0.00 93 1006.8
20260509090502 20 148 3.2 11.3 0.00 0.00 0.00 93 1006.9
20260509090003 20 157 3.2 11.3 0.00 0.00 0.00 93 1007.4
20260509085503 20 161 3.2 11.3 0.00 0.00 0.00 93 1007.4
20260509085003 20 160 3.2 9.7 0.00 0.00 0.00 92 1007.6
20260509084003 20 159 3.2 9.7 0.00 0.00 0.00 92 1008.1
20260509083503 21 163 3.2 6.4 0.00 0.00 0.00 93 1008.5
20260509082503 21 160 1.6 6.4 0.00 0.00 0.00 92 1009.2
20260509081003 21 172 0.0 3.2 0.00 0.00 0.00 92 1009.6
20260509080004 21 170 0.0 3.2 0.00 0.00 0.00 92 1009.8
20260509075503 21 178 0.0 3.2 0.00 0.00 0.00 92 1009.9
20260509075003 21 181 0.0 3.2 0.00 0.00 0.00 92 1010.3
20260509074503 20 181 0.0 1.6 0.00 0.00 0.00 92 1010.2
20260509074003 20 0 0.0 0.0 0.00 0.00 0.00 92 1010.3
20260509073504 20 0 0.0 0.0 0.00 0.00 0.00 92 1010.6
20260509073003 20 0 0.0 0.0 0.00 0.00 0.00 92 1010.6
20260509072503 20 0 0.0 0.0 0.00 0.00 0.00 92 1010.9
20260509072003 20 0 0.0 0.0 0.00 0.00 0.00 92 1011.0
20260509071503 20 0 0.0 0.0 0.00 0.00 0.00 91 1011.0
20260509071004 20 181 0.0 1.6 0.00 0.00 0.00 91 1010.9
20260509070503 20 181 0.0 1.6 0.00 0.00 0.00 91 1010.7
20260509070004 20 181 0.0 1.6 0.00 0.00 0.00 90 1010.2
20260509065503 20 210 0.0 3.2 0.00 0.00 0.00 90 1009.7
20260509065003 21 215 0.0 3.2 0.00 0.00 0.00 90 1009.7
20260509064503 21 238 0.0 1.6 0.00 0.00 0.00 90 1009.8
20260509063503 21 224 0.0 3.2 0.00 0.00 0.00 90 1010.0
20260509063003 21 208 1.6 3.2 0.00 0.00 0.00 90 1010.0
20260509062503 21 204 0.0 3.2 0.00 0.00 0.00 90 1009.9
20260509062003 21 215 0.0 1.6 0.00 0.00 0.00 89 1010.1
20260509061504 21 0 0.0 0.0 0.00 0.00 0.00 89 1010.5
20260509060503 21 215 0.0 1.6 0.00 0.00 0.00 89 1010.7
20260509060004 21 187 1.6 4.8 0.00 0.00 0.00 89 1011.0
20260509055503 21 187 1.6 4.8 0.00 0.00 0.00 89 1010.7
20260509055003 21 189 1.6 4.8 0.00 0.00 0.00 89 1010.5
20260509054504 21 0 0.0 0.0 0.00 0.00 0.00 89 1011.1
20260509054003 21 0 0.0 0.0 0.00 0.00 0.00 88 1011.4
20260509053503 21 0 0.0 0.0 0.00 0.00 0.00 88 1011.5
20260509053004 21 0 0.0 0.0 0.00 0.00 0.00 88 1011.6
20260509052503 21 196 0.0 3.2 0.00 0.00 0.00 88 1011.1
20260509051504 21 196 0.0 1.6 0.00 0.00 0.00 87 1010.1
20260509051003 21 190 0.0 3.2 0.00 0.00 0.00 87 1010.4
20260509050504 21 184 1.6 8.0 0.00 0.00 0.00 87 1010.4
20260509045503 21 185 0.0 4.8 0.00 0.00 0.00 87 1009.9
20260509045003 21 183 0.0 4.8 0.00 0.00 0.00 86 1010.1
20260509044501 21 179 1.6 9.7 0.00 0.00 0.00 86 1009.9
20260509044001 22 178 3.2 9.7 0.00 0.00 0.00 86 1009.5
20260509043501 22 173 1.6 6.4 0.00 0.00 0.00 86 1009.6
20260509042501 22 0 0.0 0.0 0.00 0.00 0.00 86 1010.2
20260509042002 21 0 0.0 0.0 0.00 0.00 0.00 85 1010.5
20260509041501 21 0 0.0 0.0 0.00 0.00 0.00 85 1010.9
20260509041002 22 0 0.0 0.0 0.00 0.00 0.00 84 1011.0
20260509040501 22 0 0.0 0.0 0.00 0.00 0.00 84 1011.0
20260509040002 22 0 0.0 0.0 0.00 0.00 0.00 85 1011.0
20260509034002 22 171 0.0 1.6 0.00 0.00 0.00 84 1010.2
20260509033501 22 170 0.0 1.6 0.00 0.00 0.00 84 1010.1
20260509033002 22 171 0.0 1.6 0.00 0.00 0.00 84 1010.1
20260509032501 22 171 0.0 3.2 0.00 0.00 0.00 84 1010.2
20260509032002 21 171 0.0 3.2 0.00 0.00 0.00 84 1010.1
20260509031501 21 166 0.0 1.6 0.00 0.00 0.00 84 1010.0
20260509030502 21 146 0.0 3.2 0.00 0.00 0.00 83 1009.9
20260509030001 21 169 0.0 3.2 0.00 0.00 0.00 83 1009.8
20260509025501 22 172 0.0 3.2 0.00 0.00 0.00 83 1009.6
20260509025001 22 170 0.0 3.2 0.00 0.00 0.00 83 1009.6
20260509024501 22 168 0.0 1.6 0.00 0.00 0.00 83 1009.6
20260509024002 22 171 0.0 3.2 0.00 0.00 0.00 83 1009.5
20260509023501 22 169 0.0 3.2 0.00 0.00 0.00 83 1009.3
20260509023002 22 163 0.0 1.6 0.00 0.00 0.00 82 1009.3
20260509022501 22 168 0.0 4.8 0.00 0.00 0.00 82 1009.2
20260509022001 22 165 0.0 4.8 0.00 0.00 0.00 82 1009.1
20260509021502 22 161 0.0 4.8 0.00 0.00 0.00 82 1009.0
20260509021001 22 165 1.6 4.8 0.00 0.00 0.00 82 1009.1
20260509020502 22 169 1.6 4.8 0.00 0.00 0.00 82 1009.2
20260509020001 22 172 1.6 3.2 0.00 0.00 0.00 82 1009.1
20260509015502 22 170 1.6 3.2 0.00 0.00 0.00 82 1009.2
20260509014502 22 163 0.0 3.2 0.00 0.00 0.00 81 1009.2
20260509014001 22 178 1.6 4.8 0.00 0.00 0.00 81 1009.1
20260509013502 22 179 1.6 4.8 0.00 0.00 0.00 81 1009.0
20260509013001 22 193 1.6 6.4 0.00 0.00 0.00 81 1009.0
20260509012502 22 202 1.6 6.4 0.00 0.00 0.00 81 1009.0
20260509012002 22 196 1.6 4.8 0.00 0.00 0.00 80 1008.8
20260509011501 22 189 0.0 3.2 0.00 0.00 0.00 80 1008.8
20260509011002 22 188 0.0 3.2 0.00 0.00 0.00 80 1008.8
20260509010502 22 189 1.6 4.8 0.00 0.00 0.00 80 1008.6
20260509005502 22 175 1.6 4.8 0.00 0.00 0.00 80 1008.4
20260509005001 22 188 1.6 8.0 0.00 0.00 0.00 79 1008.5
20260509004002 23 173 1.6 9.7 0.00 0.00 0.00 79 1008.4
20260509003502 23 183 1.6 8.0 0.00 0.00 0.00 79 1008.4
20260509003002 23 193 3.2 8.0 0.00 0.00 0.00 78 1008.4
20260509002501 23 192 1.6 8.0 0.00 0.00 0.00 78 1008.4
20260509001501 23 173 1.6 8.0 0.00 0.00 0.00 77 1008.5
20260509001002 23 183 3.2 8.0 0.00 0.00 0.00 77 1008.5
20260509000501 23 187 3.2 11.3 0.00 0.00 0.00 76 1008.6
20260508235502 23 179 1.6 4.8 0.00 0.00 0.00 75 1008.8
20260508235001 23 160 1.6 4.8 0.00 0.00 0.00 74 1008.8
20260508234002 25 137 0.0 1.6 0.00 0.00 0.00 73 1008.9
20260508233001 25 201 0.0 3.2 0.00 0.00 0.00 72 1008.9
20260508232502 25 192 1.6 6.4 0.00 0.00 0.00 72 1008.9
20260508232002 25 185 1.6 6.4 0.00 0.00 0.00 72 1008.8
20260508231502 25 195 1.6 8.0 0.00 0.00 0.00 73 1008.8
20260508225501 24 173 3.2 8.0 0.00 0.00 0.00 72 1009.0
20260508224501 24 188 4.8 12.9 0.00 0.00 0.00 72 1009.0
20260508224002 24 183 4.8 14.5 0.00 0.00 0.00 73 1009.0
20260508223501 24 179 4.8 14.5 0.00 0.00 0.00 72 1009.0
20260508223002 24 184 4.8 14.5 0.00 0.00 0.00 73 1009.0
20260508222501 23 193 4.8 14.5 0.00 0.00 0.00 73 1009.0
20260508222002 24 208 3.2 11.3 0.00 0.00 0.00 72 1009.0
20260508221502 24 218 3.2 9.7 0.00 0.00 0.00 72 1009.0
20260508221002 24 202 4.8 14.5 0.00 0.00 0.00 72 1009.0
20260508220501 25 195 4.8 14.5 0.00 0.00 0.00 71 1008.9
20260508220002 25 191 4.8 14.5 0.00 0.00 0.00 72 1008.9
20260508215501 24 184 6.4 14.5 0.00 0.00 0.00 73 1008.8
20260508214502 24 175 3.2 11.3 0.00 0.00 0.00 74 1008.8
20260508214001 23 170 4.8 11.3 0.00 0.00 0.00 75 1008.6
20260508213502 23 171 4.8 11.3 0.00 0.00 0.00 79 1008.7
20260508213002 22 166 1.6 9.7 0.00 0.00 0.00 81 1008.8
20260508212002 22 114 1.6 3.2 0.00 0.00 0.00 82 1008.6
20260508211502 22 139 1.6 6.4 0.00 0.00 0.00 79 1009.6
20260508210502 23 183 3.2 12.9 0.00 0.00 0.00 77 1010.2
20260508210002 23 196 1.6 4.8 0.00 0.00 0.00 75 1009.9
20260508205501 23 212 1.6 6.4 0.00 0.00 0.00 74 1010.5
20260508204502 23 202 1.6 4.8 0.00 0.00 0.00 72 1010.8
20260508203502 23 218 1.6 6.4 0.00 0.00 0.00 71 1010.8
20260508203002 23 216 1.6 6.4 0.00 0.00 0.00 71 1010.9
20260508202502 24 223 1.6 6.4 0.00 0.00 0.00 71 1010.8
20260508202002 24 214 1.6 6.4 0.00 0.00 0.00 70 1010.8
20260508201502 24 211 1.6 8.0 0.00 0.00 0.00 69 1010.7
20260508201002 24 204 3.2 8.0 0.00 0.00 0.00 69 1010.8
20260508200002 25 191 3.2 11.3 0.00 0.00 0.00 69 1010.7
20260508195502 25 194 3.2 9.7 0.00 0.00 0.00 69 1010.7
20260508195002 25 179 3.2 11.3 0.00 0.00 0.00 70 1010.7
20260508194502 25 184 4.8 11.3 0.00 0.00 0.00 69 1010.9
20260508194003 25 197 4.8 17.7 0.00 0.00 0.00 68 1010.9
20260508193003 24 177 6.4 14.5 0.00 0.00 0.00 69 1011.0
20260508192502 25 183 6.4 12.9 0.00 0.00 0.00 68 1011.1
20260508192002 25 193 4.8 16.1 0.00 0.00 0.00 68 1011.1
20260508191503 25 179 4.8 16.1 0.00 0.00 0.00 68 1011.2
20260508191002 25 171 4.8 12.9 0.00 0.00 0.00 68 1011.3
20260508190002 25 177 6.4 17.7 0.00 0.00 0.00 66 1011.2
20260508185002 26 178 3.2 11.3 0.00 0.00 0.00 65 1011.2
20260508184502 26 178 3.2 8.0 0.00 0.00 0.00 65 1011.4
20260508184002 26 181 3.2 11.3 0.00 0.00 0.00 65 1011.4
20260508183502 26 185 3.2 11.3 0.00 0.00 0.00 65 1011.4
20260508183002 27 200 3.2 9.7 0.00 0.00 0.00 65 1011.4
20260508182002 26 186 4.8 11.3 0.00 0.00 0.00 64 1011.7
20260508181503 27 196 3.2 11.3 0.00 0.00 0.00 62 1011.7
20260508181002 27 202 3.2 11.3 0.00 0.00 0.00 63 1011.8
20260508180502 27 199 3.2 14.5 0.00 0.00 0.00 62 1011.8
20260508175502 26 221 3.2 8.0 0.00 0.00 0.00 63 1012.0
20260508175002 26 194 3.2 9.7 0.00 0.00 0.00 62 1012.1
20260508174502 26 189 3.2 9.7 0.00 0.00 0.00 63 1012.2
20260508174002 26 174 3.2 9.7 0.00 0.00 0.00 63 1012.4
20260508173502 26 154 1.6 9.7 0.00 0.00 0.00 65 1012.4
20260508173002 26 154 1.6 8.0 0.00 0.00 0.00 64 1012.3
20260508172503 26 184 3.2 8.0 0.00 0.00 0.00 66 1012.5
20260508171502 25 174 1.6 9.7 0.00 0.00 0.00 65 1012.7
20260508171002 25 190 3.2 8.0 0.00 0.00 0.00 65 1012.9
20260508170002 25 194 3.2 11.3 0.00 0.00 0.00 65 1013.2
20260508165502 24 199 3.2 9.7 0.00 0.00 0.00 67 1013.4
20260508165002 23 210 3.2 9.7 0.00 0.00 0.00 68 1013.5
20260508164002 23 181 4.8 11.3 0.00 0.00 0.00 68 1013.7
20260508163502 23 167 4.8 11.3 0.00 0.00 0.00 69 1013.7
20260508163003 23 174 3.2 14.5 0.00 0.00 0.00 68 1013.7
20260508162502 23 195 3.2 14.5 0.00 0.00 0.00 69 1013.8
20260508162002 22 193 3.2 9.7 0.00 0.00 0.00 69 1013.8
20260508161502 22 173 3.2 8.0 0.00 0.00 0.00 70 1013.9
20260508161002 22 176 3.2 9.7 0.00 0.00 0.00 68 1014.0
20260508160502 22 189 3.2 12.9 0.00 0.00 0.00 69 1013.8
20260508160002 22 184 4.8 12.9 0.00 0.00 0.00 69 1013.9
20260508155503 22 174 3.2 16.1 0.00 0.00 0.00 70 1014.0
20260508155003 22 179 3.2 16.1 0.00 0.00 0.00 71 1014.2
20260508154002 21 185 4.8 12.9 0.00 0.00 0.00 71 1014.3
20260508152503 21 199 3.2 9.7 0.00 0.00 0.00 71 1014.5
20260508152002 21 189 3.2 11.3 0.00 0.00 0.00 70 1014.5
20260508151503 21 189 3.2 11.3 0.00 0.00 0.00 70 1014.4
20260508151002 21 194 3.2 11.3 0.00 0.00 0.00 70 1014.5
20260508150503 21 179 3.2 11.3 0.00 0.00 0.00 70 1014.5
20260508150003 21 164 1.6 8.0 0.00 0.00 0.00 72 1014.5
20260508145003 21 184 1.6 9.7 0.00 0.00 0.00 72 1014.3
20260508144502 20 183 1.6 9.7 0.00 0.00 0.00 72 1014.2
20260508143502 20 181 3.2 9.7 0.00 0.00 0.00 74 1014.2
20260508143003 20 185 3.2 11.3 0.00 0.00 0.00 73 1014.4
20260508142502 20 172 1.6 11.3 0.00 0.00 0.00 73 1014.5
20260508142003 20 166 1.6 8.0 0.00 0.00 0.00 75 1014.5
20260508141503 20 162 3.2 8.0 0.00 0.00 0.00 75 1014.6
20260508141003 20 161 3.2 8.0 0.00 0.00 0.00 76 1014.8
20260508140503 20 166 3.2 9.7 0.00 0.00 0.00 76 1014.7
20260508140003 19 160 1.6 9.7 0.00 0.00 0.00 76 1014.8